Theta_e
273 272 271 271 270 270 269 269 268 268 267 267 266 266 266 266 266 266 266 266 266 266 267 268 268 269 269 270 271 270 269 268 264 266 269 270 270 271 273 274 275 276 276
272 271 270 270 269 268 268 268 268 267 267 266 266 266 265 265 266 265 265 265 265 266 267 267 268 270 270 271 272 271 270 270 268 265 268 269 269 271 272 272 274 276 276
271 270 269 268 268 267 267 267 266 266 265 265 265 264 264 265 265 265 265 265 266 267 268 268 269 270 270 271 270 271 272 272 271 269 267 270 270 271 271 272 272 273 276
269 268 268 267 266 266 266 265 265 264 264 264 264 264 264 264 265 265 266 266 267 269 270 270 270 270 270 270 270 270 271 272 273 270 269 269 269 271 271 270 271 275 276
266 265 265 265 265 264 264 263 263 263 263 263 263 263 264 264 265 266 268 268 269 269 269 270 271 271 273 273 271 270 271 272 273 273 270 270 270 270 271 273 274 276 278
261 262 262 263 262 262 262 262 262 262 262 262 262 262 262 264 267 270 271 269 269 270 268 269 270 270 271 273 273 275 276 274 273 272 272 272 271 272 274 274 274 276 275
258 259 260 260 260 259 260 260 260 260 261 260 261 262 261 263 268 271 272 270 269 268 268 268 267 269 269 269 272 275 277 277 278 275 273 274 274 275 276 276 277 277 276
258 257 257 257 257 258 258 258 258 259 259 260 261 261 262 262 268 270 271 270 269 269 268 268 266 268 268 270 272 273 273 273 274 282 278 278 276 278 279 279 278 276 276
258 257 257 257 258 258 257 257 258 260 260 260 262 261 261 261 267 270 271 269 269 268 269 268 269 268 271 275 273 271 270 271 278 282 282 284 283 283 281 278 274 271 269
261 260 259 259 258 257 257 258 260 259 260 261 261 261 261 261 267 271 272 270 267 267 269 270 271 268 274 275 272 270 268 270 275 275 275 275 275 275 277 274 274 265 264
263 262 260 260 259 258 259 259 259 259 260 259 260 261 262 264 264 271 272 270 268 268 266 266 266 271 274 274 274 272 276 275 275 273 272 272 271 270 271 271 270 270 265
261 260 259 259 260 261 260 260 260 260 259 259 260 261 265 265 268 269 272 272 273 266 264 265 266 272 272 272 272 275 277 274 272 271 269 268 268 268 270 270 269 268 266
258 257 258 259 261 261 260 259 260 260 260 260 261 263 263 265 265 269 270 273 271 266 265 267 268 269 270 267 271 272 268 268 269 268 268 268 268 269 269 268 269 268 266
255 257 258 259 259 259 260 261 260 260 260 261 263 263 263 264 264 266 269 269 269 264 262 260 265 266 267 266 265 265 265 265 265 266 266 268 269 268 265 264 263 264 265
257 257 258 258 258 258 260 259 261 263 264 265 264 265 263 262 266 271 271 269 266 268 256 255 257 259 260 260 262 262 263 263 262 262 263 264 266 267 266 266 265 262 262
256 258 257 257 257 258 258 258 263 266 268 268 269 268 267 269 271 272 272 271 268 267 250 248 254 256 257 258 258 260 261 260 260 260 260 262 262 263 263 264 265 263 261
254 256 256 257 257 257 257 257 256 260 265 265 267 267 269 269 270 271 271 269 266 260 246 248 250 254 255 256 256 258 258 258 257 257 257 257 259 259 259 259 261 261 260
250 254 255 256 256 256 256 257 257 256 255 257 262 265 267 268 269 270 269 263 254 252 245 246 247 250 252 254 254 253 253 255 254 254 254 252 251 251 253 254 255 255 256
253 254 254 255 255 255 256 256 256 256 255 256 258 261 262 266 268 267 266 255 250 249 247 247 248 249 250 249 250 248 248 249 249 247 248 247 248 247 247 247 249 252 252
250 253 254 254 254 255 255 255 255 255 255 256 256 258 259 264 261 260 260 259 255 253 252 250 250 248 247 247 247 245 246 246 247 246 247 246 246 246 247 246 246 248 247
250 251 252 251 252 255 254 254 255 255 255 256 258 260 268 262 260 259 259 260 259 258 256 252 251 249 248 247 245 244 244 248 246 245 245 245 244 247 245 246 245 244 245
248 248 248 248 253 254 254 254 255 255 255 256 258 259 265 261 260 260 261 261 261 261 261 259 255 252 251 250 249 248 248 248 247 245 245 245 244 244 244 245 245 245 244
249 248 249 249 249 253 254 254 254 255 255 256 257 258 259 260 261 261 262 263 263 263 263 262 260 258 253 251 251 251 251 251 251 249 248 245 244 244 243 245 244 244 244
247 247 248 248 249 250 252 254 254 255 255 257 257 258 259 260 261 261 262 263 264 265 265 263 262 261 261 257 253 252 252 252 249 250 249 248 247 246 243 243 244 244 244
245 246 246 247 246 248 250 253 254 254 255 256 257 258 259 260 260 261 263 264 265 266 267 268 265 264 263 262 259 256 254 257 253 252 250 248 248 246 244 243 243 242 242
246 246 246 246 246 247 246 250 253 253 254 256 257 258 259 259 260 261 262 264 265 265 267 270 272 267 265 264 263 261 259 259 257 255 253 252 251 250 248 247 247 245 245
Wind_Speed
7 8 8 8 8 9 9 9 10 11 11 10 11 11 11 11 11 11 11 13 12 12 13 13 16 16 12 12 12 11 11 10 12 13 12 12 14 13 13 13 14 12 13
6 7 8 9 9 9 10 11 11 11 10 11 11 11 12 12 11 12 12 13 14 15 15 16 17 13 17 15 12 13 12 13 11 18 13 11 13 13 13 13 13 12 13
6 7 8 8 9 10 11 12 11 11 11 11 11 11 12 12 12 12 12 14 14 15 15 15 16 17 15 12 14 14 11 12 12 13 15 10 10 9 11 12 12 13 12
7 7 9 9 10 11 11 12 12 11 11 11 11 11 11 12 13 14 14 15 16 15 14 14 15 14 14 14 14 16 14 15 13 11 13 13 9 8 8 10 10 8 10
6 6 8 10 10 11 11 12 11 11 10 11 12 11 11 11 10 14 15 15 12 14 14 14 14 16 26 22 15 16 17 14 12 12 10 11 10 8 9 6 8 10 9
4 5 7 9 10 10 11 11 11 11 11 11 11 12 12 10 21 24 22 12 13 12 11 13 13 16 17 29 32 31 28 19 18 13 12 11 13 9 8 8 9 8 1
4 5 7 9 10 10 10 10 10 11 11 11 11 11 12 12 23 25 24 11 10 11 12 12 11 10 14 17 27 33 26 32 29 20 16 14 12 9 7 7 9 1 2
5 6 7 8 9 8 9 10 10 10 10 10 11 11 11 11 23 24 23 11 11 12 11 11 11 13 13 22 21 19 20 19 19 9 4 4 5 2 5 7 1 2 2
6 6 7 6 10 9 10 10 10 10 10 9 10 12 12 13 23 23 21 9 10 11 10 11 10 11 24 29 18 18 20 18 15 22 28 21 7 10 9 2 3 3 3
7 7 7 8 8 8 10 10 10 9 10 9 12 11 13 14 20 23 20 9 10 10 9 7 17 17 27 26 16 16 16 12 9 12 13 16 16 15 20 10 5 3 1
9 9 9 9 9 7 8 8 8 9 10 10 11 11 13 12 11 23 24 10 10 5 7 8 9 26 25 25 24 17 6 5 11 9 9 9 9 10 9 9 10 6 3
8 9 10 10 9 7 9 8 9 9 9 10 11 10 7 9 18 19 24 24 19 7 7 8 11 23 23 22 17 22 20 13 8 8 8 9 7 7 7 7 7 7 4
7 8 8 10 10 9 9 9 8 8 8 9 9 9 9 8 9 23 25 22 16 7 8 15 20 19 19 14 21 23 16 10 8 9 7 7 6 5 6 4 5 6 3
7 8 8 9 10 8 7 6 7 7 8 8 7 9 8 9 10 10 9 4 11 5 10 8 13 14 15 14 11 13 10 9 8 7 6 6 5 6 6 5 4 5 4
6 7 7 7 9 9 6 7 8 8 10 9 8 8 9 9 10 19 17 7 8 9 6 5 6 8 8 9 9 9 9 9 9 8 7 7 7 7 7 6 6 4 6
5 5 6 7 7 7 8 9 13 16 19 18 19 15 8 17 23 23 22 17 17 16 4 3 5 6 7 8 8 8 8 9 8 7 7 6 6 6 6 6 6 6 6
4 6 5 6 6 7 7 8 12 13 17 14 18 19 19 20 22 22 20 16 14 9 2 2 2 4 5 5 5 6 6 6 5 5 6 6 5 5 5 6 5 5 5
3 6 5 5 5 6 6 7 7 8 11 12 14 17 18 21 22 21 18 11 5 5 1 2 3 3 3 3 3 3 3 4 4 4 4 4 4 3 4 4 5 3 4
4 4 4 5 4 6 6 7 7 8 8 9 11 11 12 21 19 17 15 1 3 3 3 3 3 3 3 3 3 2 2 2 2 2 3 3 3 2 3 3 3 5 3
3 7 5 4 6 5 5 6 7 8 8 8 8 9 11 10 9 9 7 5 3 4 4 4 4 4 4 4 4 3 3 2 2 1 2 2 2 2 1 1 3 3 3
1 3 5 4 4 5 5 6 7 8 8 8 9 9 21 10 9 8 8 7 6 6 5 5 5 5 4 4 4 3 4 3 3 3 2 2 1 0 1 1 2 2 1
1 3 3 2 5 5 6 6 7 8 8 9 10 9 21 7 8 8 8 8 7 7 6 6 5 5 5 5 5 5 5 5 4 4 3 3 3 3 2 1 1 1 1
1 3 3 2 3 6 5 5 6 7 9 9 9 9 9 9 9 9 10 9 8 8 7 6 7 6 5 6 6 6 7 7 7 5 5 4 3 3 3 3 3 1 1
1 2 3 3 4 4 5 7 7 9 9 9 9 9 9 10 10 12 11 10 10 9 7 7 8 10 7 6 6 7 7 6 4 6 7 5 5 4 3 3 3 4 3
2 1 2 2 3 4 6 7 7 8 8 8 9 9 9 10 11 11 11 11 11 11 11 9 7 10 12 12 10 10 10 13 9 8 5 5 6 6 4 3 3 3 3
1 1 2 2 3 3 3 5 7 8 9 9 9 9 9 10 10 11 11 12 12 13 14 10 7 10 11 9 11 12 12 13 12 13 8 7 6 5 5 5 6 3 3
Wind_Direction
347 338 327 321 321 319 314 313 315 310 312 307 305 306 309 308 309 309 303 297 297 295 290 291 294 294 290 284 276 266 263 263 266 277 272 275 275 273 273 272 269 266 271
332 324 317 317 317 314 312 311 310 309 308 305 304 304 306 305 305 306 300 298 292 290 296 295 294 294 296 293 292 279 262 257 258 271 271 270 262 266 266 272 272 268 267
330 326 317 316 315 314 314 312 312 310 308 303 305 302 303 302 305 299 294 286 287 290 289 288 297 299 304 313 312 308 302 269 256 255 270 268 266 263 271 265 266 266 262
336 325 319 323 322 319 317 315 314 313 305 303 303 299 301 303 305 300 292 288 282 286 288 293 296 304 308 302 308 308 301 295 282 253 257 269 266 267 253 268 277 261 267
333 322 320 322 323 320 319 316 314 308 304 304 306 304 304 303 300 296 290 284 291 295 293 303 301 303 308 309 314 304 297 292 291 295 254 260 260 263 252 260 266 276 281
324 314 313 319 321 319 316 315 313 309 308 307 307 305 307 304 307 307 309 312 303 304 306 301 301 306 304 313 310 306 302 301 301 287 277 259 258 253 259 263 270 271 234
317 312 317 312 314 312 309 311 310 311 311 308 307 310 305 303 310 317 316 310 309 302 299 301 302 297 307 303 300 302 307 302 294 281 263 248 251 246 255 270 281 41 17
315 309 299 301 306 309 311 309 309 309 307 307 311 304 304 303 319 317 317 313 298 293 295 298 292 303 305 309 306 314 312 312 311 15 239 227 217 226 244 269 43 70 356
307 302 300 304 313 317 310 308 306 307 315 311 309 309 305 300 313 320 314 315 297 293 296 298 299 316 311 317 322 318 320 323 339 35 45 65 78 58 58 52 34 51 352
321 312 307 306 305 307 299 306 310 309 306 311 307 305 301 296 306 318 329 315 305 304 302 336 328 327 322 329 331 319 310 312 1 23 29 34 37 35 38 33 13 77 3
321 319 315 311 309 295 296 310 301 306 306 304 301 299 297 293 303 323 326 335 311 13 348 339 332 324 335 341 343 322 47 22 25 35 36 35 33 31 28 32 33 35 29
321 319 318 313 313 320 316 311 316 314 313 305 307 305 316 317 319 325 331 327 344 25 352 333 325 335 342 354 350 6 35 36 33 38 36 28 23 19 21 28 29 44 39
321 316 309 311 316 324 318 318 318 317 311 307 308 321 323 327 314 315 315 323 357 24 349 342 342 346 353 354 8 22 24 21 27 40 31 23 13 356 4 358 6 357 34
312 310 313 316 318 318 314 314 314 315 308 303 318 319 322 323 310 302 312 43 355 58 3 349 354 356 4 3 7 15 19 18 22 24 15 3 360 15 20 3 4 343 15
311 309 315 315 315 318 319 316 320 308 307 329 324 324 326 318 313 333 336 9 356 9 22 354 354 0 0 3 3 12 15 16 18 9 10 8 12 14 22 11 22 9 46
321 325 317 314 316 319 325 323 323 324 331 334 335 336 321 324 330 331 346 10 353 8 30 355 347 355 0 358 356 358 11 13 9 7 10 13 14 15 14 15 25 38 35
314 313 311 309 314 324 329 325 326 326 331 338 341 339 336 336 333 335 346 13 356 25 46 325 315 339 335 343 350 352 359 0 348 8 16 8 5 16 16 19 15 25 32
286 284 287 302 305 315 319 315 313 312 319 322 335 335 339 337 335 346 345 6 346 356 294 277 285 290 298 307 320 325 326 345 357 1 10 5 8 17 19 13 22 32 19
312 305 303 296 289 301 304 312 311 308 306 305 318 331 330 326 335 348 348 247 269 288 278 285 256 265 268 269 271 281 283 307 326 347 349 356 356 44 13 9 20 26 44
277 288 301 304 314 318 320 319 319 313 310 309 315 320 318 322 341 332 326 309 276 259 254 253 264 250 248 246 259 251 279 284 297 314 310 337 343 9 50 40 19 44 17
270 295 302 313 303 316 313 313 310 305 304 308 308 314 329 343 317 313 312 308 297 284 269 238 248 245 242 240 232 232 227 244 220 225 237 251 234 97 269 35 98 69 61
275 289 309 328 316 319 316 308 307 303 303 307 313 316 332 326 316 310 306 299 293 281 270 262 249 229 227 219 218 217 224 230 220 207 214 213 200 184 170 137 94 55 53
255 309 310 312 301 309 316 315 312 311 311 311 313 319 326 324 318 314 309 304 296 286 274 259 257 252 225 221 213 213 217 227 220 184 198 200 197 191 173 168 162 155 172
170 288 309 317 327 318 319 325 317 314 312 314 317 320 320 319 317 315 313 310 307 299 280 260 250 249 248 221 210 210 220 224 186 198 189 180 197 189 166 174 179 190 176
161 315 330 327 322 317 321 324 319 317 317 317 318 318 317 317 317 318 317 317 313 312 309 293 247 245 243 237 222 210 212 220 203 192 183 180 194 189 187 189 180 187 177
185 233 280 320 315 307 300 317 318 317 317 317 314 314 315 315 313 315 317 318 320 315 313 302 294 240 239 237 232 222 212 214 210 196 181 185 195 198 185 200 200 189 191